Tracking 32968 objects as of 18-Jan-2026
HD Live streaming from Space Station
objects crossing your sky now

CZ-3A DEB

Track CZ-3A DEB now!
10-day predictions


NORAD ID: 35547
Int'l Code: 2007-003F
Perigee: 266.9 km
Apogee: 2,543.2 km
Inclination: 24.5 °
Period: 113.7 minutes
Semi major axis: 7776 km
RCS: 0.0399 m2 (small)
Launch date: February 2, 2007
Source: People's Republic of China (PRC)
Launch site: Xichang Space Center, China (XSC)

Note: This is SATELLITE DEBRIS
Your satellite tracking list
Your tracking list is empty




NASA's NSSDC Master Catalog

Two Line Element Set (TLE):
1 35547U 07003F   25361.04571567  .00913532  71809-4  14983-1 0  9994
2 35547  24.5088 312.0339 1463690 351.3255   6.4314 12.66086459 29070
Source of the keplerian elements: AFSPC